GSAT-30

Last updated on Sun Jun 21 2026 00:03:08 GMT+0000 (Coordinated Universal Time)

1 45026U 20005A 26171.40849205 -.00000169 00000+0 00000+0 0 9998 2 45026 0.0232 262.0961 0003454 176.5947 59.9797 1.00273051 23546
UTC large
Height (km)
Speed (km/s)
/
Latitude / Longitude
Inclination (degrees)
Orbital Period (minutes)
Azimuth
Elevation
Range (km)
Doppler Factor

Next 0 passes for location: London (51.5072 / 0.1276)

No passes found over London.
GSAT-30